KD8CJ Weather Reports


time (UTC)temp
F
wind
direction
speed
knots
gust
knots
rain 1hr
in
rain 24hr
in
rain mn
in
humidity
%
barometer
mb
20260504014505 52 253 0.9 4.3 0.00 0.00 0.00 53 1013.3
20260504013008 53 238 0.9 6.1 0.00 0.00 0.00 51 1013.1
20260504011504 54 335 0.9 3.5 0.00 0.00 0.00 48 1013.0
20260504010008 54 258 2.6 7.0 0.00 0.00 0.00 45 1012.7
20260504004510 54 261 0.0 3.5 0.00 0.00 0.00 45 1012.4
20260504003004 55 96 0.0 2.6 0.00 0.00 0.00 44 1012.4
20260504001504 55 273 0.9 3.5 0.00 0.00 0.00 43 1012.5
20260504000007 56 240 0.0 7.8 0.00 0.00 0.00 42 1012.5
20260503234505 56 282 1.7 6.1 0.00 0.00 0.00 41 1012.6
20260503233007 57 274 0.9 4.3 0.00 0.00 0.00 42 1012.7
20260503231504 57 253 0.9 4.3 0.00 0.00 0.00 39 1012.8
20260503230006 58 248 3.5 8.7 0.00 0.00 0.00 40 1012.9
20260503224507 58 276 1.7 4.3 0.00 0.00 0.00 39 1012.9
20260503223004 58 167 1.7 8.7 0.00 0.00 0.00 38 1013.1
20260503221506 59 266 1.7 5.2 0.00 0.00 0.00 37 1013.2
20260503220007 59 1 1.7 7.0 0.00 0.00 0.00 36 1013.2
20260503214503 60 282 0.9 8.7 0.00 0.00 0.00 39 1013.2
20260503213018 60 239 1.7 10.4 0.00 0.00 0.00 37 1013.2
20260503211514 60 156 1.7 7.8 0.00 0.00 0.00 35 1013.3
20260503210009 60 292 1.7 7.0 0.00 0.00 0.00 38 1013.1
20260503204508 60 285 2.6 7.8 0.00 0.00 0.00 37 1013.2
20260503203008 62 245 2.6 8.7 0.00 0.00 0.00 35 1013.2
20260503201524 62 215 1.7 7.0 0.00 0.00 0.00 34 1013.4
20260503200007 61 208 2.6 7.0 0.00 0.00 0.00 36 1013.6
20260503194510 62 158 2.6 7.8 0.00 0.00 0.00 37 1013.9
20260503193008 61 264 1.7 8.7 0.00 0.00 0.00 40 1014.2
20260503191509 60 120 2.6 7.8 0.00 0.00 0.00 37 1014.5
20260503190017 61 255 0.9 7.8 0.00 0.00 0.00 37 1014.6
20260503184512 60 323 2.6 6.1 0.00 0.00 0.00 37 1014.9
20260503183017 60 158 2.6 8.7 0.00 0.00 0.00 38 1015.1
20260503181524 60 173 2.6 7.8 0.00 0.00 0.00 38 1015.2
20260503180008 60 251 3.5 11.3 0.00 0.00 0.00 38 1015.3
20260503174511 60 295 1.7 8.7 0.00 0.00 0.00 35 1015.4
20260503173035 61 133 0.9 4.3 0.00 0.00 0.00 38 1015.4
20260503171513 61 6 2.6 6.1 0.00 0.00 0.00 35 1015.7
20260503081517 31 257 0.0 0.0 0.00 0.02 0.00 93 1016.1
20260503071516 33 257 0.0 0.0 0.00 0.02 0.00 92 1016.1
20260503054521 38 257 0.0 0.9 0.00 0.02 0.00 87 1016.3
20260503053031 38 257 0.0 0.9 0.00 0.02 0.00 87 1016.4
20260503051523 38 257 0.0 0.9 0.00 0.02 0.00 87 1016.5
20260503050030 38 257 0.0 0.9 0.00 0.02 0.00 87 1016.5
20260503044522 38 257 0.0 0.9 0.00 0.02 0.00 88 1016.4
20260503043016 38 257 0.0 0.9 0.00 0.02 0.00 88 1016.5
20260503041522 38 257 0.0 0.0 0.00 0.02 0.00 89 1016.5
20260503040025 38 257 0.0 0.0 0.00 0.02 0.00 89 1016.7
20260503034529 38 257 0.0 0.0 0.00 0.02 0.02 89 1016.7
20260503033015 38 257 0.0 0.0 0.00 0.02 0.02 88 1016.7
20260503031519 38 257 0.0 0.9 0.00 0.02 0.02 88 1016.7
20260503030021 38 257 0.0 0.0 0.00 0.02 0.02 88 1016.7
20260503024526 38 257 0.0 0.0 0.00 0.02 0.02 88 1016.9
20260503023027 38 257 0.0 0.0 0.00 0.02 0.02 87 1017.1
20260503021519 38 257 0.0 0.0 0.00 0.02 0.02 85 1017.0
20260503020032 38 257 0.0 0.0 0.00 0.02 0.02 84 1017.0